User: anonymous   Login
Location: Newark
(35.4036°N, 80.4356°W)
Time: 17:51:05
(UTC+00:00)
Language:

LilacSat-2 - Orbit

View from above orbital plane
View from above orbital plane
View from above satellite
View from above satellite

Ground track
Ground track

The orbit data is extracted from the following two-line orbital elements,

1 40908U 15049K   19287.46096176  .00000370  00000-0  24008-4 0  9994
2 40908  97.4835 285.9946 0016446 150.3257   4.0639 15.13866169224620
Epoch (UTC): 14 October 2019 11:03:47
Eccentricity: 0.0016446
inclination: 97.4835°
perigee height: 513 km
apogee height: 536 km
right ascension of ascending node: 285.9946°
argument of perigee: 150.3257°
revolutions per day: 15.13866169
mean anomaly at epoch: 4.0639°
orbit number at epoch: 22462

The dashed part of the orbit path shows where the satellite is in the earth's shadow,  

DLR